Regional Weather Roundup
Issued by NWS Newport/Morehead, NC

Current Version | Previous Version | Graphics & Text | Print | Product List | Glossary Off
Versions: 1 2 3 4 5 6 7 8 9 10 11 12 13 14 15 16 17 18 19 20 21 22 23 24 25 26 27 28 29 30 31 32 33 34 35 36 37 38 39 40 41 42 43 44 45 46 47 48 49 50

000
ASUS42 KMHX 300513
RWRMHX
WEATHER ROUNDUP FOR EASTERN NORTH CAROLINA
NATIONAL WEATHER SERVICE NEWPORT/MOREHEAD CITY NC
100 AM EDT THU JUL 30 2015

NOTE: "FAIR" INDICATES FEW OR NO CLOUDS BELOW 12,000 FEET
WITH NO SIGNIFICANT WEATHER AND/OR OBSTRUCTIONS TO VISIBILITY

NCZ015>017-031-032-045>047-102-103-300600-
NORTH COAST

CITY           SKY/WX    TMP DP  RH WIND       PRES   REMARKS
EDENTON        CLEAR     73  70  91 CALM      30.00S
ELIZABETH CITY CLEAR     73  70  90 CALM      30.00F
KITTY HAWK     CLEAR     78  70  78 E3        29.98F
MANTEO         CLEAR     77  73  85 E3        29.99F

$$

NCZ045>047-081-094-103-104-300600-
CENTRAL COAST

CITY           SKY/WX    TMP DP  RH WIND       PRES   REMARKS
FRISCO         CLEAR     80  77  90 E6        29.97F
SWANQUARTER      N/A     75 N/A N/A N3        29.94S

$$

NCZ095-097-098-100-101-300600-
SOUTHERN COAST

CITY           SKY/WX    TMP DP  RH WIND       PRES   REMARKS
BEAUFORT       CLEAR     77  76  96 N6        29.95F
CEDAR ISLAND     N/A     82 N/A N/A E6G14     30.00S
JACKSONVILLE   PTCLDY    77  72  84 NE5       29.96F
PINEY ISLAND   PTCLDY   N/A N/A N/A MISG      29.96F
WILMINGTON     CLEAR     75  72  90 N5        29.97R


$$

NCZ011>013-027>030-043-044-078>080-089-090>093-098-300600-
COASTAL PLAIN

CITY           SKY/WX    TMP DP  RH WIND       PRES   REMARKS
AHOSKIE        CLEAR     74  69  85 SE5       29.99F
CLINTON        CLEAR     75  73  91 CALM      29.98F
ELIZABETHTOWN  CLEAR     76  70  83 CALM      29.97F
GOLDSBORO      CLEAR     75  71  87 CALM      29.97F
GREENVILLE     CLEAR     75  72  88 CALM      30.01F
HAVELOCK       CLEAR     79  75  87 NE6       29.97F
KENANSVILLE    CLEAR     70  68  95 CALM      29.99F
KINSTON        CLEAR     73  71  92 CALM      29.99F
NEW BERN       CLEAR     75  71  87 CALM      29.98F
RICHLANDS      CLEAR     72  66  83 CALM      29.98S
ROCKY MOUNT    CLEAR     76  71  85 SE3       30.00S
WASHINGTON     CLEAR     72  70  93 CALM      29.99F
WHITEVILLE     CLEAR     74  71  90 CALM      29.97S

$$

AMZ130-135-150-152-154-156-158-170-250-252-270-ANZ085-086-088-633-658-670-300600-
MARINE OBSERVATIONS

STATION/POSITION TIME  TEMP    WIND        PRES    WAVE   SWELL
                       AIR SEA DIR/SP/G            HT/PER HT/PER
                 (UTC) (F)     (DEG/KT/KT) (MB)    (FT/S) (FT/S)
CHESAPEAKE LIGHT 0500   80     180/ 12/ 12 1016.6
64 E VA BEACH    0450   81 82  160/ 10/ 12 1015.8    3/ 6   2/ 6
DUCK             0400   76                   N/A
2 E DUCK         0411      74                N/A     2/ 6
OREGON INLET     0400   79                   N/A
13E OREGON INLT  0500      81                N/A     3/ 6
HATTERAS CG      0400   80                   N/A
DIAMOND BUOY     0450   83 85  130/ 10/ 12 1014.9    4/ 6   3/ 6
CAPE LOOKOUT     0500   81      40/  9/ 10 1013.9
BEAUFORT LAB     0400   79                   N/A
30 SE NEW RVR IN NOT AVBL
27 SE WRIGHTSVLE NOT AVBL
5 SE WRIGHTSVLE  NOT AVBL
225 S CAPE HAT   0450   82 82  200/ 19/ 23 1015.2    7/ 7
41 SE CHARLESTON 0450   83 84   50/  8/ 10 1013.9    3/ 7   3/ 7

$$


USA.gov is the U.S. government's official web portal to all federal, state and local government web resources and services.